Albuquerque Double Eagle, NM

6:16 AM MDT on May 26, 2018 (GMT -0600)
Double Eagle Ii

Weather History for KAEG - October, 2012

Change the Weather History Date:

Tuesday, October 23, 2012

  Actual Average (WUND) Record (WUND)
Temperature  
Mean Temperature 56 °F -  
Max Temperature 73 °F - - (-1)
Min Temperature 39 °F - - (-1)
Degree Days  
Heating Degree Days 9    
Growing Degree Days 6 (Base 50)    
Moisture  
Dew Point 25 °F    
Average Humidity 34    
Maximum Humidity 56    
Minimum Humidity 16    
Precipitation  
Precipitation 0.00 in - - ()
Sea Level Pressure  
Sea Level Pressure 30.04 in    
Wind  
Wind Speed 6 mph (WSW)    
Max Wind Speed 13 mph    
Max Gust Speed -    
Visibility 10 miles    
Events      
Averages and records for this station are not official NWS values.
T = Trace of Precipitation, MM = Missing Value Source: NWS Daily Summary

Daily Weather History Graph

Daily Weather History Graph

Search for Another Location

Airport or City:

Astronomy

Oct. 23, 2012 Rise Set
Actual Time 7:20 AM MDT 6:21 PM MDT
Civil Twilight 6:54 AM MDT 6:47 PM MDT
Nautical Twilight 6:25 AM MDT 7:17 PM MDT
Astronomical Twilight 5:55 AM MDT 7:46 PM MDT
Moon 2:55 PM MDT (10/23) 1:28 AM MDT (10/23)
Length of Visible Light 11h 52m
Length of Day
11h 01m
Waxing Gibbous, 67% of the Moon is Illuminated
Oct 23
Waxing Gibbous
Oct 29
Full
Nov 6
Last Quarter
Nov 13
New
Nov 20
First Quarter

Hourly Weather History & Observations

Time (MDT) Temp. Dew Point Humidity Pressure Visibility Wind Dir Wind Speed Gust Speed Precip Events Conditions
12:15 AM 51.8 °F 26.6 °F 38% 30.05 in 10.0 mi West 9.2 mph - N/A   Clear
12:35 AM 50.0 °F 26.6 °F 40% 30.05 in 10.0 mi Calm Calm - N/A   Clear
12:55 AM 48.2 °F 24.8 °F 40% 30.05 in 10.0 mi West 11.5 mph - N/A   Clear
1:15 AM 50.0 °F 26.6 °F 40% 30.05 in 10.0 mi West 10.4 mph - N/A   Clear
1:35 AM 48.2 °F 26.6 °F 43% 30.04 in 10.0 mi West 3.5 mph - N/A   Clear
1:55 AM 50.0 °F 26.6 °F 40% 30.04 in 10.0 mi West 11.5 mph - N/A   Clear
2:15 AM 50.0 °F 26.6 °F 40% 30.04 in 10.0 mi WNW 8.1 mph - N/A   Clear
2:35 AM 48.2 °F 26.6 °F 43% 30.04 in 10.0 mi Calm Calm - N/A   Clear
2:55 AM 44.6 °F 24.8 °F 46% 30.05 in 10.0 mi Calm Calm - N/A   Clear
3:15 AM 46.4 °F 26.6 °F 46% 30.05 in 10.0 mi Calm Calm - N/A   Clear
3:35 AM 48.2 °F 26.6 °F 43% 30.05 in 10.0 mi Calm Calm - N/A   Clear
3:55 AM 50.0 °F 26.6 °F 40% 30.05 in 10.0 mi Calm Calm - N/A   Clear
4:15 AM 46.4 °F 26.6 °F 46% 30.04 in 10.0 mi Calm Calm - N/A   Clear
4:55 AM 50.0 °F 26.6 °F 40% 30.05 in 10.0 mi NNE 4.6 mph - N/A   Clear
5:35 AM 44.6 °F 24.8 °F 46% 30.06 in 10.0 mi Calm Calm - N/A   Clear
6:50 AM 39.2 °F 24.8 °F 56% 30.08 in 10.0 mi Calm Calm - N/A   Clear
7:50 AM 41.0 °F 24.8 °F 53% 30.08 in 10.0 mi Calm Calm - N/A   Clear
8:50 AM 51.8 °F 26.6 °F 38% 30.10 in 10.0 mi Calm Calm - N/A   Clear
9:50 AM 60.8 °F 24.8 °F 25% 30.11 in 10.0 mi SW 4.6 mph - N/A   Partly Cloudy
10:50 AM 64.4 °F 26.6 °F 24% 30.10 in 10.0 mi WSW 3.5 mph - N/A   Partly Cloudy
12:50 PM 68.0 °F 26.6 °F 21% 30.07 in 10.0 mi South 6.9 mph - N/A   Partly Cloudy
1:50 PM 71.6 °F 24.8 °F 17% 30.04 in 10.0 mi SW 9.2 mph - N/A   Partly Cloudy
2:50 PM 71.6 °F 24.8 °F 17% 30.01 in 10.0 mi WSW 9.2 mph - N/A   Partly Cloudy
3:50 PM 73.4 °F 24.8 °F 16% 30.00 in 10.0 mi SSE 4.6 mph - N/A   Partly Cloudy
4:50 PM 73.4 °F 26.6 °F 18% 29.99 in 10.0 mi South 10.4 mph - N/A   Partly Cloudy
5:50 PM 68.0 °F 26.6 °F 21% 29.98 in 10.0 mi SSE 10.4 mph - N/A   Scattered Clouds
6:50 PM 62.6 °F 23.0 °F 22% 29.98 in 10.0 mi Variable 5.8 mph - N/A   Scattered Clouds
10:35 PM 55.4 °F 23.0 °F 29% 30.01 in 10.0 mi WSW 6.9 mph - N/A   Clear
10:55 PM 57.2 °F 23.0 °F 27% 30.01 in 10.0 mi WSW 11.5 mph - N/A   Clear
11:15 PM 57.2 °F 23.0 °F 27% 30.01 in 10.0 mi WSW 10.4 mph - N/A   Clear
11:35 PM 57.2 °F 23.0 °F 27% 30.02 in 10.0 mi WSW 12.7 mph - N/A   Clear
11:55 PM 57.2 °F 23.0 °F 27% 30.02 in 10.0 mi WSW 12.7 mph - N/A   Clear